Zurück zum Katalog

CZ-11 R/B

AktivSSO
NORAD 43161·ROCKET BODY·🇨🇳 China

Gestartet Jan 19, 2018 von Jiuquan Satellite Launch Center

Loading…

Nächste Überflüge (nächste 24 Stunden)

TLE

AktuellSource: Space-Track

Epoche: Sep 14, 2026, 22:02 UTC

1 43161U 18008G   26257.91854255  .00000274  00000-0  59022-4 0  9998
2 43161  98.2535 238.8525 0361689 181.5113 178.5011 14.32528818451516

Verfolge CZ-11 R/B in Echtzeit mit AllMySat

Download on the App Store